Weather History for Altus AFB, OK

Change the Weather History Date:

Wednesday, September 10, 2014

  Actual Average Record
Temperature  
Mean Temperature 80 °F -  
Max Temperature 88 °F 87 °F 98 °F (1999)
Min Temperature 70 °F 64 °F 50 °F (2001)
Cooling Degree Days 14    
Growing Degree Days 30 (Base 50)    
Moisture  
Dew Point 66 °F    
Average Humidity 62    
Maximum Humidity 73    
Minimum Humidity 53    
Precipitation  
Precipitation 0.00 in - - ()
Sea Level Pressure  
Sea Level Pressure 29.79 in    
Wind  
Wind Speed 14 mph (NNE)    
Max Wind Speed 24 mph    
Max Gust Speed 30 mph    
Visibility 10 miles    
Events      
Averages and records for this station are not official NWS values.
T = Trace of Precipitation, MM = Missing Value Source: NWS Daily Summary

Daily Weather History Graph

Daily Weather History Graph

Search for Another Location

Airport:

Trip Planner

Search our weather history database for the weather conditions in past years. The results will help you decide how hot, cold, wet, or windy it might be!

Date:

Astronomy

Sep. 10, 2014 Rise Set
Actual Time 7:16 AM CDT 7:50 PM CDT
Civil Twilight 6:51 AM CDT 8:16 PM CDT
Nautical Twilight 6:21 AM CDT 8:46 PM CDT
Astronomical Twilight 5:50 AM CDT 9:16 PM CDT
Moon 8:57 PM CDT (9/10) 9:00 AM CDT (9/10)
Length of Visible Light 13h 25m
Length of Day
12h 34m
Waning Gibbous, 96% of the Moon is Illuminated
Sep 10
Waning Gibbous
Sep 15
Last Quarter
Sep 24
New
Oct 1
First Quarter
Oct 8
Full

Hourly Weather History & Observations

Time (CDT) Temp. Heat Index Dew Point Humidity Pressure Visibility Wind Dir Wind Speed Gust Speed Precip Events Conditions
12:58 AM 82.9 °F 84.4 °F 64.0 °F 53% 29.71 in 10.0 mi South 12.7 mph - N/A   Clear
1:58 AM 80.2 °F 82.0 °F 64.6 °F 59% 29.65 in 10.0 mi South 10.4 mph - N/A   Clear
2:58 AM 77.4 °F - 64.9 °F 65% 29.65 in 10.0 mi South 10.4 mph - N/A   Clear
3:58 AM 78.1 °F - 64.8 °F 63% 29.65 in 10.0 mi South 11.5 mph - N/A   Clear
4:58 AM 79.9 °F - 64.6 °F 59% 29.64 in 10.0 mi South 12.7 mph - N/A   Clear
5:58 AM 79.0 °F - 64.6 °F 61% 29.65 in 10.0 mi South 10.4 mph - N/A   Scattered Clouds
6:58 AM 76.8 °F - 64.9 °F 67% 29.67 in 10.0 mi SSW 8.1 mph - N/A   Scattered Clouds
7:58 AM 76.6 °F - 65.1 °F 67% 29.69 in 10.0 mi South 8.1 mph - N/A   Clear
8:58 AM 80.4 °F 82.3 °F 65.5 °F 60% 29.70 in 10.0 mi SSW 11.5 mph - N/A   Clear
9:58 AM 82.9 °F 85.2 °F 66.2 °F 57% 29.73 in 10.0 mi West 5.8 mph - N/A   Clear
10:58 AM 85.8 °F 88.5 °F 67.1 °F 53% 29.74 in 10.0 mi North 10.4 mph - N/A   Clear
11:58 AM 87.4 °F 91.9 °F 69.4 °F 55% 29.76 in 10.0 mi NNE 15.0 mph 19.6 mph N/A   Partly Cloudy
12:58 PM 88.0 °F 92.9 °F 69.8 °F 55% 29.77 in 10.0 mi North 16.1 mph 23.0 mph N/A   Partly Cloudy
1:43 PM 86.0 °F 90.4 °F 69.8 °F 58% 29.84 in 10.0 mi NNE 18.4 mph 25.3 mph N/A   Mostly Cloudy
1:58 PM 87.1 °F 91.6 °F 69.6 °F 56% 29.79 in 10.0 mi NNE 13.8 mph 25.3 mph N/A   Mostly Cloudy
2:58 PM 83.8 °F 87.5 °F 69.1 °F 61% 29.81 in 10.0 mi North 24.2 mph 29.9 mph N/A   Mostly Cloudy
3:03 PM 84.2 °F 88.4 °F 69.8 °F 62% 29.85 in 10.0 mi North 21.9 mph 29.9 mph N/A   Scattered Clouds
3:08 PM 84.2 °F 88.4 °F 69.8 °F 62% 29.85 in 10.0 mi NNE 23.0 mph 28.8 mph N/A   Mostly Cloudy
3:43 PM 80.6 °F 83.2 °F 68.0 °F 65% 29.86 in 10.0 mi North 17.3 mph 26.5 mph N/A   Mostly Cloudy
3:58 PM 81.3 °F 84.0 °F 67.6 °F 63% 29.82 in 10.0 mi North 20.7 mph 26.5 mph N/A   Overcast
4:03 PM 80.6 °F 82.7 °F 66.2 °F 61% 29.86 in 10.0 mi NNE 24.2 mph 27.6 mph N/A   Overcast
4:08 PM 80.6 °F 82.7 °F 66.2 °F 61% 29.86 in 10.0 mi NNE 23.0 mph 29.9 mph N/A   Overcast
4:28 PM 80.6 °F 82.7 °F 66.2 °F 61% 29.87 in 10.0 mi North 21.9 mph 27.6 mph N/A   Scattered Clouds
4:58 PM 81.5 °F 83.6 °F 65.8 °F 59% 29.82 in 10.0 mi North 20.7 mph - N/A   Scattered Clouds
5:58 PM 81.5 °F 83.3 °F 65.1 °F 57% 29.83 in 10.0 mi NNE 19.6 mph - N/A   Scattered Clouds
6:58 PM 79.3 °F - 64.6 °F 60% 29.83 in 10.0 mi North 18.4 mph 25.3 mph N/A   Scattered Clouds
7:58 PM 77.0 °F - 64.2 °F 65% 29.84 in 10.0 mi NNE 12.7 mph - N/A   Clear
8:58 PM 73.0 °F - 63.9 °F 73% 29.87 in 10.0 mi NNE 8.1 mph - N/A   Clear
9:58 PM 72.9 °F - 62.4 °F 70% 29.90 in 10.0 mi NNE 6.9 mph - N/A   Clear
10:58 PM 71.2 °F - 61.7 °F 72% 29.91 in 10.0 mi NNE 12.7 mph - N/A   Clear
11:58 PM 70.7 °F - 61.5 °F 73% 29.92 in 10.0 mi NNE 11.5 mph - N/A   Clear